Flag for Germany Weather past 2 weeks in Neu-Isenburg, Hesse, Germany

Now
74 °F

Scattered clouds.


Feels Like: 77 °F
Forecast: 60 / 71 °F
Wind: 2 mph from East

Location: Frankfurt / M-Flughafen

Current Time: Jul 7, 2015 at 9:45:39 AM

Latest Report: Jul 7, 2015 at 9:00 AM


Visibility: 37 mi

Pressure: 29.95 "Hg

Humidity: 44%

Dew point: 50 °F

Location of Neu-IsenburgLocation

Historic Weather in Neu-Isenburg — Graph

°F

Neu-Isenburg temperature yesterday

Maximum temperature yesterday: 83 °F (at 7:00 PM)
Minimum temperature yesterday: 62 °F (at 6:00 AM)
Average temperature yesterday: 74 °F

Past Weeks' High & Low Weather Summary

 TemperatureHumidityPressure
High100 °F (Jul 4, 6:00 PM)100% (Jun 27, 8:00 AM)30.23 "Hg (Jun 27, 8:00 AM)
Low49 °F (Jun 23, 6:00 AM)21% (Jun 30, 7:00 PM)29.70 "Hg (Jun 22, 11:00 PM)
Average72 °F60%30.08 "Hg
* Reported Jun 22 9:00 AM — Jul 7 9:00 AM, Neu-Isenburg, Weather by CustomWeather, © 2015

Note: Actual official high and low records may vary slightly from our data, if they occured in-between our weather recording intervals... More about our weather records

Advertising

Neu-Isenburg weather history for previous 24 hours

 ConditionsComfort  
Time TempWeatherWind HumidityBarometerVisibility
9:00 AM
Tue, Jul 7
74 °FScattered clouds.2 mph44%29.95 "Hg37 mi
8:00 AM69 °FPassing clouds.2 mph53%29.96 "Hg37 mi
7:00 AM66 °FPassing clouds.2 mph59%29.98 "Hg37 mi
6:00 AM64 °FPassing clouds.2 mph63%30.00 "Hg37 mi
4:00 AM67 °FPassing clouds.2 mph56%30.01 "Hg40 mi
3:00 AM67 °FClear.2 mph54%30.02 "Hg40 mi
2:00 AM70 °FClear.2 mph49%30.03 "Hg40 mi
1:00 AM69 °FClear.1 mph53%30.05 "Hg40 mi
12:00 AM69 °FPassing clouds.2 mph50%30.06 "Hg40 mi
10:00 PM
Mon, Jul 6
77 °FPassing clouds.2 mph34%30.06 "Hg43 mi
9:00 PM78 °FSunny.2 mph34%30.06 "Hg40 mi
8:00 PM83 °FSunny.3 mph22%30.06 "Hg37 mi
7:00 PM83 °FSunny.5 mph22%30.07 "Hg37 mi
6:00 PM83 °FSunny.5 mph22%30.08 "Hg37 mi
4:00 PM82 °FSunny.5 mph22%30.12 "Hg37 mi
3:00 PM81 °FSunny.5 mph26%30.13 "Hg37 mi
2:00 PM78 °FPassing clouds.3 mph27%30.15 "Hg37 mi
1:00 PM76 °FPassing clouds.5 mph29%30.17 "Hg37 mi
12:00 PM76 °FPassing clouds.5 mph30%30.18 "Hg34 mi
10:00 AM72 °FPassing clouds.5 mph57%30.20 "Hg28 mi
9:00 AM69 °FScattered clouds.5 mph62%30.19 "Hg25 mi
Weather by CustomWeather, © 2015

See weather overviewHow to use our weather pages